Location: Los Gatos B&B
(42.6926°N, 77.0646°W)
Time: 09:19:00
(UTC-04:00)

Amateur Radio Satellites - All Passes

Search period start: 05 July 2015 08:49
Search period end: 06 July 2015 08:49
Location: Los Gatos B&B, 42.6926°N, 77.0646°W

Satellite Date Start Highest point End Downlink Frequencies (MHz)
Time Altitude Azimuth
VERMONT LUNAR 05 Jul 08:53:12 08:56:11 44° 169° (S) 08:59:12 437.305
AIST 2 05 Jul 08:57:17 09:01:33 90° 268° (W) 09:05:51 435.215
GONETS M04 05 Jul 08:58:48 09:07:01 48° 89° (E) 09:15:18
O/OREOS (USA 219) 05 Jul 08:59:18 09:03:03 25° 304° (NW) 09:06:44 437.305
BEESAT 3 05 Jul 08:59:51 09:03:04 21° 317° (NW) 09:06:14 437.485
AUBIESAT-1 05 Jul 09:04:23 09:07:38 54° 254° (WSW) 09:11:03 437.475
BRITE-PL 05 Jul 09:10:40 09:15:01 86° 102° (ESE) 09:19:09 437.365/2234.400
BEESAT 2 05 Jul 09:13:15 09:16:25 20° 317° (NW) 09:19:32 435.950
DANDE 05 Jul 09:17:25 09:24:19 50° 283° (WNW) 09:29:35 436.750
COMPASS 1 05 Jul 09:19:03 09:22:18 22° 93° (E) 09:25:39 437.405
PHONESAT 2.4 05 Jul 09:21:55 09:24:47 25° 157° (SSE) 09:27:42 2401.200-2431.200
DOVE 4 05 Jul 09:22:35 09:26:30 40° 97° (E) 09:30:26 437.250
CUTE 1.7 + AOD 2 05 Jul 09:31:04 09:35:12 46° 98° (E) 09:39:20 437.475
RS-15 05 Jul 09:33:17 09:43:28 35° 30° (NNE) 09:54:14 29.354- 29.394
CANX-2 05 Jul 09:34:29 09:38:43 56° 100° (E) 09:42:56 2200.000
UNISAT 6 05 Jul 09:35:44 09:37:42 13° 64° (ENE) 09:39:51 437.425
M-CUBED/EXP-1 PRIME 05 Jul 09:40:52 09:43:04 16° 263° (W) 09:45:13 437.505
CUSAT 1 05 Jul 09:53:46 09:57:43 17° 289° (WNW) 10:00:54 437.405
UWE-3 05 Jul 09:58:53 10:01:42 18° 91° (E) 10:04:40 435.000/436.395/437.385
HO-68 05 Jul 10:01:51 10:09:03 82° 105° (ESE) 10:16:14 435.675
CINEMA 3 05 Jul 10:02:16 10:06:20 50° 99° (E) 10:10:29 145.822/145.860
ISS 05 Jul 10:08:09 10:10:57 26° 341° (NNW) 10:13:44 145.825
QB50P1 05 Jul 10:12:11 10:14:15 14° 64° (ENE) 10:16:30 145.935-145.965
SEEDS 05 Jul 10:18:02 10:22:16 65° 285° (WNW) 10:26:29 437.485
ANTELSAT 05 Jul 10:18:05 10:21:58 36° 71° (ENE) 10:25:54 437.575/2403.000
GOMX 1 05 Jul 10:20:36 10:24:14 28° 291° (WNW) 10:27:44 467.674
NANOSAT C BR1 05 Jul 10:25:10 10:28:02 18° 66° (ENE) 10:31:01 145.865
AAUSAT CUBESAT 2 05 Jul 10:27:02 10:31:15 76° 284° (WNW) 10:35:27 437.432
TIGRISAT 05 Jul 10:29:51 10:33:56 46° 72° (ENE) 10:38:01 435.000
VERMONT LUNAR 05 Jul 10:29:51 10:32:55 55° 186° (S) 10:36:01 437.305
DUCHIFAT 1 05 Jul 10:31:32 10:34:39 21° 67° (ENE) 10:37:51 145.980
Cosmos 2499 05 Jul 10:32:59 10:39:11 36° 88° (E) 10:45:36 435.465 / 435.565
DELFI C3 05 Jul 10:37:00 10:40:53 41° 98° (E) 10:44:45 145.870
POLYITAN 1 05 Jul 10:37:21 10:40:47 25° 68° (ENE) 10:44:18 437.675
AIST 2 05 Jul 10:38:23 10:40:47 14° 323° (NW) 10:43:05 435.215
ZACube-1 05 Jul 10:43:40 10:47:41 41° 98° (E) 10:51:47 437.345
BUGSAT 1 05 Jul 10:44:51 10:47:50 20° 67° (ENE) 10:50:55 437.445
CUBEBUG 2 05 Jul 10:44:59 10:49:11 72° 102° (ESE) 10:53:29 437.445
UKube-1 05 Jul 10:49:14 10:51:40 15° 90° (E) 10:54:17 .
Oscar 11 05 Jul 10:50:30 10:54:52 86° 103° (ESE) 10:59:13 145.826/435.025
COMPASS 1 05 Jul 10:54:14 10:58:04 33° 289° (WNW) 11:01:50 437.405
GONETS M04 05 Jul 10:55:56 11:04:05 39° 290° (WNW) 11:12:05
HUMSAT D 05 Jul 10:55:58 10:59:22 24° 94° (E) 11:02:51 437.325/437.525
PHONESAT 2.4 05 Jul 10:59:07 11:02:29 56° 174° (S) 11:05:53 2401.200-2431.200
DOVE 4 05 Jul 11:01:13 11:04:03 18° 294° (WNW) 11:06:45 437.250
QB50P2 05 Jul 11:06:08 11:10:15 51° 73° (ENE) 11:14:23 145.880/145.840
POPSAT HIP 1 05 Jul 11:06:39 11:10:44 50° 73° (ENE) 11:14:52 437.405
CUTE 1.7 + AOD 2 05 Jul 11:07:55 11:10:47 17° 294° (WNW) 11:13:32 437.475
UNISAT 6 05 Jul 11:09:48 11:14:03 61° 259° (W) 11:18:18 437.425
AISAT 05 Jul 11:10:30 11:13:12 16° 90° (E) 11:16:04 437.250
CANX-2 05 Jul 11:11:47 11:14:14 15° 295° (WNW) 11:16:31 2200.000
FUNcube-1 05 Jul 11:19:19 11:23:33 80° 284° (WNW) 11:27:51 145.935
CUBEBUG 1 05 Jul 11:26:17 11:28:07 13° 88° (E) 11:30:10 437.445
UWE-3 05 Jul 11:34:28 11:38:27 41° 288° (WNW) 11:42:28 435.000/436.395/437.385
CINEMA 3 05 Jul 11:40:45 11:43:13 15° 295° (WNW) 11:45:33 145.822/145.860
ESTCUBE 1 05 Jul 11:45:00 11:48:44 25° 94° (E) 11:52:30 437.505/2401.250
QB50P1 05 Jul 11:45:30 11:49:42 59° 259° (W) 11:53:54 145.935-145.965
ISS 05 Jul 11:45:55 11:48:07 17° 1° (N) 11:50:19 145.825
RS-15 05 Jul 11:45:55 11:57:42 89° 62° (ENE) 12:09:56 29.354- 29.394
HO-68 05 Jul 11:50:51 11:56:05 22° 303° (WNW) 12:01:05 435.675
ANTELSAT 05 Jul 11:55:41 11:58:56 20° 268° (W) 12:02:03 437.575/2403.000
VELOX 1 05 Jul 11:58:21 12:02:39 51° 100° (E) 12:06:56 145.980
NANOSAT C BR1 05 Jul 11:59:35 12:03:36 41° 262° (W) 12:07:37 145.865
DX 1 05 Jul 12:04:18 12:08:40 75° 285° (WNW) 12:12:59 434.975-435.025
DUCHIFAT 1 05 Jul 12:06:20 12:10:15 36° 263° (W) 12:14:09 145.980
VERMONT LUNAR 05 Jul 12:06:53 12:09:34 25° 201° (SSW) 12:12:13 437.305
TIGRISAT 05 Jul 12:08:19 12:11:00 16° 270° (W) 12:13:29 435.000
50 SAT 05 Jul 12:11:30 12:15:25 90° 332° (NNW) 12:19:21 437.505
POLYITAN 1 05 Jul 12:12:52 12:16:37 29° 264° (W) 12:20:18 437.675
DELFI C3 05 Jul 12:12:56 12:15:40 17° 294° (WNW) 12:18:17 145.870
BUGSAT 1 05 Jul 12:19:06 12:23:05 38° 262° (W) 12:27:01 437.445
ZACube-1 05 Jul 12:20:50 12:23:48 18° 293° (WNW) 12:26:40 437.345
UKube-1 05 Jul 12:23:57 12:28:09 50° 288° (WNW) 12:32:19 .
CUBEBUG 2 05 Jul 12:23:59 12:25:25 11° 297° (WNW) 12:26:39 437.445
SPROUT 05 Jul 12:24:10 12:26:42 16° 90° (E) 12:29:24 437.525
Cosmos 2499 05 Jul 12:25:42 12:32:17 40° 288° (WNW) 12:38:55 435.465 / 435.565
Oscar 11 05 Jul 12:29:46 12:30:27 10° 298° (WNW) 12:30:53 145.826/435.025
HUMSAT D 05 Jul 12:31:29 12:35:07 29° 290° (WNW) 12:38:43 437.325/437.525
PHONESAT 2.4 05 Jul 12:36:59 12:40:21 50° 190° (S) 12:43:43 2401.200-2431.200
YUBILEINY 05 Jul 12:38:14 12:40:34 11° 50° (NE) 12:43:33 435.215
QB50P2 05 Jul 12:44:07 12:46:30 14° 270° (W) 12:48:43 145.880/145.840
POPSAT HIP 1 05 Jul 12:44:30 12:46:58 14° 270° (W) 12:49:14 437.405
AISAT 05 Jul 12:45:51 12:50:06 47° 288° (WNW) 12:54:19 437.250
CUBEBUG 1 05 Jul 13:00:39 13:04:58 60° 286° (WNW) 13:09:13 437.445
TISAT 1 05 Jul 13:01:21 13:04:50 25° 95° (E) 13:08:21 437.305
Oscar 19 05 Jul 13:10:28 13:15:15 42° 70° (ENE) 13:20:06 437.125/150
ESTCUBE 1 05 Jul 13:21:34 13:25:39 33° 291° (WNW) 13:29:40 437.505/2401.250
ISS 05 Jul 13:22:22 13:25:16 29° 21° (NNE) 13:28:10 145.825
Gurwin Techsat 1B 05 Jul 13:25:11 13:28:45 19° 62° (ENE) 13:32:29 435.225
ITAMSAT 1 05 Jul 13:25:45 13:29:11 19° 62° (ENE) 13:32:47 435.822/435.867
VELOX 1 05 Jul 13:35:58 13:38:50 17° 296° (WNW) 13:41:33 145.980
BEESAT 05 Jul 13:54:05 13:57:07 17° 90° (E) 14:00:19 436.000
AO-7 05 Jul 13:58:49 14:03:34 17° 48° (NE) 14:08:41 29.400- 29.500
SPROUT 05 Jul 13:58:58 14:03:06 46° 288° (WNW) 14:07:10 437.525
RS-15 05 Jul 13:59:52 14:09:00 26° 256° (WSW) 14:17:47 29.354- 29.394
SWISSCUBE 05 Jul 14:09:09 14:13:08 26° 94° (E) 14:17:12 437.505
ITUPSAT 1 05 Jul 14:14:55 14:18:58 27° 94° (E) 14:23:04 437.325
PHONESAT 2.4 05 Jul 14:15:23 14:17:58 19° 206° (SSW) 14:20:32 2401.200-2431.200
YUBILEINY 05 Jul 14:31:21 14:39:57 58° 76° (ENE) 14:48:35 435.215
TISAT 1 05 Jul 14:36:59 14:40:35 27° 291° (WNW) 14:44:06 437.305
JAS-2 05 Jul 14:43:10 14:47:15 24° 64° (ENE) 14:51:37 435.910
Oscar 19 05 Jul 14:50:39 14:54:49 24° 267° (W) 14:58:53 437.125/150
HORYU 2 05 Jul 14:52:50 14:55:20 15° 64° (ENE) 14:58:00 437.375
KKS-1 05 Jul 14:53:27 14:54:20 11° 87° (E) 14:55:29 437.445
Cosmos 2491 05 Jul 14:54:11 15:02:02 39° 87° (E) 15:10:00 435.465 / 435.565
ISS 05 Jul 14:58:38 15:01:46 47° 219° (SW) 15:04:53 145.825
Gurwin Techsat 1B 05 Jul 15:03:02 15:08:18 62° 259° (W) 15:13:35 435.225
ITAMSAT 1 05 Jul 15:03:04 15:08:14 63° 259° (WSW) 15:13:27 435.822/435.867
BEESAT 05 Jul 15:30:40 15:35:21 53° 288° (WNW) 15:40:00 436.000
Cosmos 2504 05 Jul 15:36:21 15:40:31 16° 61° (ENE) 15:45:15 435.465 / 435.565
BEESAT 3 05 Jul 15:38:50 15:42:37 35° 49° (NE) 15:46:21 437.485
STARS 05 Jul 15:40:48 15:44:09 22° 93° (E) 15:47:34 437.465
AIST 2 05 Jul 15:41:35 15:43:15 12° 34° (NE) 15:45:01 435.215
AIST 1 05 Jul 15:43:04 15:47:16 46° 93° (E) 15:51:31
SWISSCUBE 05 Jul 15:46:41 15:51:04 35° 291° (WNW) 15:55:23 437.505
AO-7 05 Jul 15:46:48 15:55:02 69° 68° (ENE) 16:03:21 29.400- 29.500
PCSat 05 Jul 15:50:12 15:55:28 56° 115° (ESE) 16:00:47 145.827
SO-50 05 Jul 15:50:32 15:52:41 13° 109° (ESE) 15:55:07 436.795
O/OREOS (USA 219) 05 Jul 15:52:03 15:52:23 10° 46° (NE) 15:52:58 437.305
ITUPSAT 1 05 Jul 15:52:33 15:56:55 34° 291° (WNW) 16:01:13 437.325
BEESAT 2 05 Jul 15:52:33 15:56:24 38° 50° (NE) 16:00:13 435.950
KKS-1 05 Jul 16:27:08 16:31:34 73° 286° (WNW) 16:35:59 437.445
HORYU 2 05 Jul 16:27:13 16:31:34 56° 259° (W) 16:35:56 437.375
JAS-2 05 Jul 16:27:17 16:32:11 42° 263° (W) 16:37:18 435.910
YUBILEINY 05 Jul 16:28:52 16:36:23 32° 275° (W) 16:43:42 435.215
Cosmos 2491 05 Jul 16:50:17 16:58:46 48° 287° (WNW) 17:07:13 435.465 / 435.565
MOZHAYETS 4 05 Jul 16:52:55 16:56:36 23° 93° (E) 17:00:22
STARS 05 Jul 17:16:42 17:20:42 35° 290° (WNW) 17:24:40 437.465
BEESAT 3 05 Jul 17:17:10 17:20:23 22° 246° (WSW) 17:23:29 437.485
AIST 2 05 Jul 17:18:24 17:22:38 74° 55° (NE) 17:26:46 435.215
AIST 1 05 Jul 17:22:21 17:25:15 17° 292° (WNW) 17:28:01
Cosmos 2504 05 Jul 17:26:27 17:33:59 82° 82° (E) 17:42:06 435.465 / 435.565
SO-50 05 Jul 17:27:53 17:32:38 77° 306° (NW) 17:37:33 436.795
O/OREOS (USA 219) 05 Jul 17:28:10 17:32:43 76° 66° (ENE) 17:37:16 437.305
BEESAT 2 05 Jul 17:31:08 17:34:15 21° 247° (WSW) 17:37:15 435.950
PCSat 05 Jul 17:34:45 17:39:15 25° 315° (NW) 17:43:42 145.827
AO-7 05 Jul 17:41:36 17:48:33 27° 268° (W) 17:55:17 29.400- 29.500
CUTE-I 05 Jul 17:47:08 17:51:52 34° 67° (ENE) 17:56:42 437.470
Cubesat XI-IV 05 Jul 18:21:01 18:26:20 67° 73° (ENE) 18:31:42 437.490
MOZHAYETS 4 05 Jul 18:29:39 18:33:57 37° 289° (WNW) 18:38:11
BRITE-PL 05 Jul 18:45:42 18:48:28 15° 64° (ENE) 18:51:22 437.365/2234.400
CUSAT 1 05 Jul 18:46:27 18:48:37 22° 74° (ENE) 18:50:46 437.405
HO-68 05 Jul 18:48:01 18:51:13 14° 51° (NE) 18:54:45 435.675
STRAND 1 05 Jul 18:48:38 18:49:48 11° 86° (E) 18:51:17 437.568
AIST 2 05 Jul 18:59:22 19:00:39 11° 251° (WSW) 19:01:43 435.215
CUBESAT XI-V 05 Jul 18:59:27 19:03:53 41° 97° (E) 19:08:17 437.345
GONETS M04 05 Jul 19:08:21 19:14:59 24° 62° (ENE) 19:21:53
O/OREOS (USA 219) 05 Jul 19:10:27 19:11:35 11° 261° (W) 19:12:26 437.305
SO-50 05 Jul 19:11:06 19:14:04 16° 326° (NNW) 19:16:57 436.795
Cosmos 2504 05 Jul 19:20:22 19:25:30 19° 278° (W) 19:30:28 435.465 / 435.565
CUTE-I 05 Jul 19:27:06 19:31:57 33° 264° (W) 19:36:46 437.470
GOMX 1 05 Jul 19:50:49 19:55:21 34° 70° (ENE) 19:59:39 467.674
DANDE 05 Jul 19:59:13 20:01:48 34° 265° (W) 20:04:11 436.750
Cubesat XI-IV 05 Jul 20:03:35 20:07:01 16° 271° (W) 20:10:14 437.490
COMPASS 1 05 Jul 20:11:40 20:14:21 17° 66° (ENE) 20:17:09 437.405
PRISM 05 Jul 20:16:41 20:20:56 81° 104° (ESE) 20:25:05 437.425
BRITE-PL 05 Jul 20:21:03 20:26:31 79° 257° (WSW) 20:31:39 437.365/2234.400
Cosmos 2499 05 Jul 20:22:48 20:26:34 14° 58° (ENE) 20:30:57 435.465 / 435.565
STRAND 1 05 Jul 20:24:39 20:29:50 88° 275° (W) 20:34:58 437.568
CUTE 1.7 + AOD 2 05 Jul 20:24:42 20:28:31 35° 71° (ENE) 20:32:25 437.475
CANX-2 05 Jul 20:28:06 20:32:04 43° 73° (ENE) 20:36:06 2200.000
DOVE 4 05 Jul 20:28:26 20:33:04 48° 73° (ENE) 20:37:29 437.250
HO-68 05 Jul 20:30:43 20:37:46 66° 70° (ENE) 20:44:52 435.675
CUBESAT XI-V 05 Jul 20:37:27 20:41:06 22° 294° (WNW) 20:44:37 437.345
UWE-3 05 Jul 20:57:31 21:00:06 17° 66° (ENE) 21:02:48 435.000/436.395/437.385
GONETS M04 05 Jul 21:04:13 21:12:55 76° 265° (W) 21:21:33
CINEMA 3 05 Jul 21:04:38 21:08:58 51° 74° (ENE) 21:13:10 145.822/145.860
SEEDS 05 Jul 21:10:27 21:14:38 86° 257° (WSW) 21:18:51 437.485
AAUSAT CUBESAT 2 05 Jul 21:18:10 21:22:18 78° 75° (ENE) 21:26:28 437.432
M-CUBED/EXP-1 PRIME 05 Jul 21:18:45 21:22:18 25° 100° (E) 21:26:07 437.505
DELFI C3 05 Jul 21:25:07 21:28:32 28° 70° (ENE) 21:32:02 145.870
DX 1 05 Jul 21:27:44 21:29:00 11° 61° (ENE) 21:30:29 434.975-435.025
GOMX 1 05 Jul 21:29:03 21:33:29 28° 265° (W) 21:37:37 467.674
ZACube-1 05 Jul 21:40:35 21:44:23 36° 71° (ENE) 21:48:13 437.345
CUBEBUG 2 05 Jul 21:43:55 21:48:09 65° 75° (ENE) 21:52:19 437.445
UKube-1 05 Jul 21:45:09 21:47:41 16° 64° (ENE) 21:50:22 .
Oscar 11 05 Jul 21:45:45 21:50:01 72° 75° (ENE) 21:54:20 145.826/435.025
COMPASS 1 05 Jul 21:45:45 21:49:43 42° 262° (W) 21:53:42 437.405
HUMSAT D 05 Jul 21:49:03 21:51:57 19° 67° (ENE) 21:54:58 437.325/437.525
PRISM 05 Jul 21:54:57 21:55:47 10° 299° (WNW) 21:56:23 437.425
CUTE 1.7 + AOD 2 05 Jul 22:01:25 22:04:35 20° 268° (W) 22:07:39 437.475
CANX-2 05 Jul 22:05:29 22:08:16 16° 270° (W) 22:10:54 2200.000
STRAND 1 05 Jul 22:06:05 22:08:21 13° 301° (WNW) 22:10:22 437.568
DOVE 4 05 Jul 22:07:43 22:11:06 18° 269° (W) 22:14:10 437.250
AISAT 05 Jul 22:09:13 22:12:08 18° 65° (ENE) 22:15:11 437.250
Cosmos 2499 05 Jul 22:13:26 22:21:18 72° 80° (E) 22:29:47 435.465 / 435.565
FUNcube-1 05 Jul 22:15:41 22:19:53 87° 77° (ENE) 22:24:03 145.935
AUBIESAT-1 05 Jul 22:17:14 22:21:30 90° 305° (NW) 22:26:04 437.475
HO-68 05 Jul 22:20:25 22:26:07 24° 269° (W) 22:31:36 435.675
CUBEBUG 1 05 Jul 22:23:33 22:25:37 13° 63° (ENE) 22:27:52 437.445
UWE-3 05 Jul 22:32:16 22:36:20 45° 261° (W) 22:40:22 435.000/436.395/437.385
CINEMA 3 05 Jul 22:43:52 22:46:30 15° 270° (W) 22:48:54 145.822/145.860
ESTCUBE 1 05 Jul 22:45:27 22:49:11 26° 68° (ENE) 22:53:01 437.505/2401.250
M-CUBED/EXP-1 PRIME 05 Jul 22:53:17 22:57:06 33° 294° (WNW) 23:01:09 437.505
PCSat 05 Jul 22:55:55 22:57:48 12° 32° (NNE) 22:59:53 145.827
50 SAT 05 Jul 22:56:09 22:59:52 53° 74° (ENE) 23:03:39 437.505
VELOX 1 05 Jul 22:56:25 23:00:44 50° 73° (ENE) 23:05:05 145.980
DX 1 05 Jul 23:00:17 23:04:41 80° 257° (WSW) 23:09:05 434.975-435.025
DELFI C3 05 Jul 23:00:24 23:03:38 23° 266° (W) 23:06:51 145.870
UNISAT 6 05 Jul 23:01:03 23:04:41 25° 94° (E) 23:08:25 437.425
GONETS M04 05 Jul 23:04:01 23:08:25 14° 284° (WNW) 23:12:13
ZACube-1 05 Jul 23:17:48 23:20:55 19° 268° (W) 23:23:53 437.345
UKube-1 05 Jul 23:19:10 23:23:25 53° 260° (W) 23:27:42 .
SPROUT 05 Jul 23:19:41 23:22:01 15° 64° (ENE) 23:24:32 437.525
HUMSAT D 05 Jul 23:23:42 23:27:30 35° 263° (W) 23:31:16 437.325/437.525
CUBEBUG 2 05 Jul 23:24:05 23:25:21 11° 272° (W) 23:26:21 437.445
Oscar 11 05 Jul 23:26:03 23:26:48 10° 273° (W) 23:27:16 145.826/435.025
QB50P1 05 Jul 23:30:30 23:33:37 20° 92° (E) 23:36:49 145.935-145.965
NANOSAT C BR1 05 Jul 23:43:46 23:47:23 28° 95° (E) 23:51:01 145.865
AISAT 05 Jul 23:44:03 23:48:23 48° 261° (W) 23:52:44 437.250
ANTELSAT 05 Jul 23:45:04 23:49:29 74° 102° (ESE) 23:53:58 437.575/2403.000
DUCHIFAT 1 05 Jul 23:50:05 23:53:50 32° 96° (E) 23:57:37 145.980
TISAT 1 05 Jul 23:54:27 23:57:43 23° 67° (ENE) 00:01:04 437.305
AUBIESAT-1 05 Jul 23:54:31 23:55:45 11° 302° (WNW) 23:56:48 437.475
TIGRISAT 05 Jul 23:56:46 00:01:10 86° 284° (WNW) 00:05:38 435.000
POLYITAN 1 05 Jul 23:56:56 00:00:55 40° 98° (E) 00:04:53 437.675
CUBEBUG 1 05 Jul 23:57:04 00:01:29 67° 258° (WSW) 00:05:55 437.445
BUGSAT 1 06 Jul 00:00:44 00:04:10 26° 95° (E) 00:07:37 437.445
Cosmos 2499 06 Jul 00:07:49 00:13:54 24° 276° (W) 00:19:58 435.465 / 435.565
SO-50 06 Jul 00:18:59 00:22:41 21° 39° (NE) 00:26:27 436.795
ESTCUBE 1 06 Jul 00:21:52 00:25:58 32° 264° (W) 00:30:02 437.505/2401.250
QB50P2 06 Jul 00:26:14 00:30:28 88° 96° (E) 00:34:41 145.880/145.840
POPSAT HIP 1 06 Jul 00:26:34 00:30:48 86° 107° (ESE) 00:35:00 437.405
50 SAT 06 Jul 00:33:40 00:34:54 11° 271° (W) 00:35:55 437.505
VELOX 1 06 Jul 00:34:46 00:37:37 16° 270° (W) 00:40:18 145.980
PCSat 06 Jul 00:37:16 00:42:35 53° 55° (NE) 00:47:53 145.827
UNISAT 6 06 Jul 00:37:35 00:41:29 31° 290° (WNW) 00:45:25 437.425
SPROUT 06 Jul 00:53:28 00:57:42 55° 260° (W) 01:01:57 437.525
BEESAT 06 Jul 01:01:16 01:04:52 22° 65° (ENE) 01:08:37 436.000
Cosmos 2491 06 Jul 01:03:48 01:09:39 20° 59° (ENE) 01:15:51 435.465 / 435.565
QB50P1 06 Jul 01:05:46 01:09:36 34° 289° (WNW) 01:13:24 145.935-145.965
SWISSCUBE 06 Jul 01:16:22 01:20:37 33° 68° (ENE) 01:24:56 437.505
NANOSAT C BR1 06 Jul 01:19:38 01:23:09 26° 292° (WNW) 01:26:35 145.865
ITUPSAT 1 06 Jul 01:22:24 01:26:41 34° 69° (ENE) 01:31:03 437.325
Oscar 19 06 Jul 01:22:46 01:25:10 14° 88° (E) 01:27:51 437.125/150
ANTELSAT 06 Jul 01:23:59 01:25:46 12° 297° (WNW) 01:27:22 437.575/2403.000
DUCHIFAT 1 06 Jul 01:26:11 01:29:30 23° 292° (WNW) 01:32:44 145.980
TISAT 1 06 Jul 01:29:28 01:33:20 33° 263° (W) 01:37:09 437.305
POLYITAN 1 06 Jul 01:33:34 01:36:33 19° 294° (WNW) 01:39:26 437.675
BUGSAT 1 06 Jul 01:36:13 01:39:34 25° 292° (WNW) 01:42:49 437.445
YUBILEINY 06 Jul 01:44:23 01:46:06 11° 74° (ENE) 01:48:34 435.215
AIST 1 06 Jul 01:50:59 01:52:57 13° 66° (ENE) 01:55:08
KKS-1 06 Jul 01:52:22 01:54:06 12° 62° (ENE) 01:56:03 437.445
SO-50 06 Jul 01:58:49 02:03:48 72° 238° (WSW) 02:08:38 436.795
RS-15 06 Jul 02:10:20 02:20:41 55° 113° (ESE) 02:31:28 29.354- 29.394
PCSat 06 Jul 02:21:26 02:25:41 23° 252° (WSW) 02:29:47 145.827
BEESAT 06 Jul 02:37:57 02:42:29 42° 262° (W) 02:47:03 436.000
STARS 06 Jul 02:38:37 02:41:58 22° 67° (ENE) 02:45:25 437.465
SWISSCUBE 06 Jul 02:54:23 02:58:30 28° 265° (W) 03:02:34 437.505
Cosmos 2491 06 Jul 02:59:12 03:08:01 89° 78° (ENE) 03:16:44 435.465 / 435.565
Oscar 19 06 Jul 03:00:03 03:05:11 73° 285° (WNW) 03:10:18 437.125/150
ITUPSAT 1 06 Jul 03:00:33 03:04:37 27° 266° (W) 03:08:40 437.325
ITAMSAT 1 06 Jul 03:15:14 03:20:12 44° 98° (E) 03:25:10 435.822/435.867
Gurwin Techsat 1B 06 Jul 03:18:26 03:23:37 50° 99° (E) 03:28:47 435.225
KKS-1 06 Jul 03:25:46 03:30:12 74° 258° (WSW) 03:34:40 437.445
AIST 1 06 Jul 03:26:49 03:31:07 58° 265° (W) 03:35:20
YUBILEINY 06 Jul 03:32:52 03:41:21 64° 93° (E) 03:49:57 435.215
JAS-2 06 Jul 03:33:37 03:39:06 26° 92° (E) 03:45:14 435.910
AO-7 06 Jul 03:48:58 03:54:34 20° 89° (E) 04:00:33 29.400- 29.500
MOZHAYETS 4 06 Jul 03:55:46 03:59:25 25° 67° (ENE) 04:03:11
STARS 06 Jul 04:14:10 04:18:14 36° 263° (W) 04:22:17 437.465
HORYU 2 06 Jul 04:17:57 04:21:39 25° 94° (E) 04:25:25 437.375
RS-15 06 Jul 04:22:44 04:33:19 50° 318° (NW) 04:44:16 29.354- 29.394
Oscar 19 06 Jul 04:42:58 04:43:44 10° 302° (WNW) 04:44:12 437.125/150
ITAMSAT 1 06 Jul 04:55:14 04:59:29 25° 295° (WNW) 05:03:37 435.822/435.867
Cosmos 2491 06 Jul 04:58:05 05:03:48 19° 281° (WNW) 05:09:03 435.465 / 435.565
Gurwin Techsat 1B 06 Jul 04:59:09 05:03:18 23° 296° (WNW) 05:07:19 435.225
JAS-2 06 Jul 05:17:57 05:24:30 61° 288° (WNW) 05:31:47 435.910
YUBILEINY 06 Jul 05:31:30 05:38:56 29° 295° (WNW) 05:46:10 435.215
MOZHAYETS 4 06 Jul 05:32:17 05:36:30 35° 264° (W) 05:40:43
AO-7 06 Jul 05:40:05 05:48:31 86° 289° (WNW) 05:56:53 29.400- 29.500
HORYU 2 06 Jul 05:54:21 05:58:19 32° 291° (WNW) 06:02:16 437.375
Cosmos 2504 06 Jul 05:58:17 06:05:02 59° 93° (E) 06:11:52 435.465 / 435.565
CUBESAT XI-V 06 Jul 06:03:22 06:07:48 43° 71° (ENE) 06:12:18 437.345
STRAND 1 06 Jul 06:04:05 06:07:36 19° 63° (ENE) 06:11:17 437.568
CUTE-I 06 Jul 06:05:30 06:07:09 12° 86° (E) 06:09:10 437.470
Cubesat XI-IV 06 Jul 06:38:10 06:42:30 25° 93° (E) 06:46:54 437.490
RS-15 06 Jul 06:40:37 06:49:23 25° 350° (N) 06:58:21 29.354- 29.394
JAS-2 06 Jul 07:06:09 07:08:40 12° 304° (NW) 07:10:51 435.910
PRISM 06 Jul 07:07:07 07:11:15 64° 74° (ENE) 07:15:26 437.425
BEESAT 3 06 Jul 07:09:21 07:13:17 51° 119° (ESE) 07:17:17 437.485
AIST 2 06 Jul 07:19:07 07:21:01 13° 110° (ESE) 07:23:07 435.215
BEESAT 2 06 Jul 07:24:05 07:28:06 57° 120° (ESE) 07:32:11 435.950
DANDE 06 Jul 07:26:19 07:31:41 25° 94° (E) 07:36:14 436.750
AO-7 06 Jul 07:34:15 07:40:19 22° 309° (NW) 07:46:05 29.400- 29.500
AUBIESAT-1 06 Jul 07:35:00 07:35:31 10° 57° (ENE) 07:36:12 437.475
ISS 06 Jul 07:38:00 07:40:54 31° 138° (SE) 07:43:51 145.825
O/OREOS (USA 219) 06 Jul 07:41:01 07:45:28 78° 111° (ESE) 07:49:57 437.305
STRAND 1 06 Jul 07:41:20 07:46:24 58° 259° (W) 07:51:31 437.568
CUBESAT XI-V 06 Jul 07:41:56 07:45:28 20° 269° (W) 07:48:55 437.345
CUTE-I 06 Jul 07:42:41 07:48:05 88° 286° (WNW) 07:53:27 437.470
CUSAT 1 06 Jul 07:51:31 07:57:35 51° 98° (E) 08:02:14 437.405
Cosmos 2504 06 Jul 07:52:19 07:57:50 24° 294° (WNW) 08:03:12 435.465 / 435.565
VERMONT LUNAR 06 Jul 07:53:48 07:56:39 33° 163° (SSE) 07:59:32 437.305
M-CUBED/EXP-1 PRIME 06 Jul 08:08:28 08:11:22 29° 65° (ENE) 08:14:26 437.505
GONETS M04 06 Jul 08:11:25 08:18:07 27° 83° (E) 08:25:06
Cubesat XI-IV 06 Jul 08:17:43 08:22:49 44° 290° (WNW) 08:27:51 437.490
BRITE-PL 06 Jul 08:26:10 08:29:48 27° 94° (E) 08:33:23 437.365/2234.400
PHONESAT 2.4 06 Jul 08:38:25 08:41:04 21° 155° (SSE) 08:43:44 2401.200-2431.200
PRISM 06 Jul 08:45:49 08:47:12 11° 272° (W) 08:48:20 437.425
